Torna al catalogo

COSMOS 1275 DEB

AttivoPO
NORAD 12671·DEBRIS·🇷🇺 Russia

Lanciato Jun 4, 1981 da Plesetsk Cosmodrome

Loading…

Prossimi Passaggi (prossime 24 ore)

TLE

AggiornatoSource: Space-Track

Epoca: Sep 14, 2026, 01:27 UTC

1 12671U 81053AB  26257.06086373  .00001380  00000-0  74205-3 0  9992
2 12671  82.9049 118.8515 0021642 359.3857   0.7289 14.12118998292390

Traccia COSMOS 1275 DEB in tempo reale con AllMySat

Download on the App Store